Location: Wellington
(41.3000°S, 174.7830°E)
Time: 09:07:47
(UTC+13:00)

IGS 5A - Pass Details

Date: 24 January 2019
Orbit: 583 x 589 km, 97.6° (Epoch: 27 September)

Event Time Altitude Azimuth Distance (km) Brightness Sun altitude
Rises 23:40:35 0° 164° (SSE) 2,853 7.6 -24.1°
Reaches altitude 10° 23:42:48 10° 160° (SSE) 1,944 6.6 -24.3°
Enters shadow 23:46:04 47° 129° (SE) 795 4.1 -24.6°
